Location: *
(43.0409°N, 0.1694°E)
Time: 22:24:06
(UTC+00:00)

Meteor 2-4 Rocket - Pass Details

Date: 03 October 2023
Orbit: 798 x 908 km, 81.2° (Epoch: 05 December)

Event Time Altitude Azimuth Distance (km) Brightness Sun altitude
Rises 05:14:59 0° 195° (SSW) 3,521 6.7 -8.8°
Reaches altitude 10° 05:17:28 10° 197° (SSW) 2,582 6.0 -8.3°
Maximum altitude 05:23:21 71° 281° (WNW) 952 3.8 -7.2°
Drops below altitude 10° 05:29:12 10° 6° (N) 2,557 6.3 -6.2°
Sets 05:31:39 0° 9° (N) 3,485 7.0 -5.7°
